Location: Bremen
(53.0793°N, 8.8017°E)
Time: 22:17:42
(UTC+01:00)

A-11 Canister half - Visible Passes

Search period start: 06 December 2021 00:00
Search period end: 16 December 2021 00:00
Orbit: 1524 x 1685 km, 47.3° (Epoch: 06 December)

Date Brightness Start Highest point End Pass type
(mag) Time Alt. Az. Time Alt. Az. Time Alt. Az.
06 Dec 10.9 01:42:50 17° E 01:42:50 17° E 01:44:42 10° E visible
06 Dec 9.4 03:41:08 57° SE 03:41:08 57° SE 03:49:26 10° E visible
06 Dec 9.3 05:39:26 33° WSW 05:44:07 57° SSW 05:53:37 10° ESE visible
06 Dec 10.1 07:39:30 10° W 07:47:48 31° SW 07:55:54 10° SSE visible
07 Dec 11.2 01:22:23 12° E 01:22:23 12° E 01:23:00 10° E visible
07 Dec 9.6 03:20:41 49° ESE 03:20:41 49° ESE 03:27:46 10° E visible
07 Dec 9.3 05:18:59 41° WSW 05:22:27 58° SSW 05:32:00 10° ESE visible
07 Dec 10.0 07:17:45 10° W 07:26:12 33° SW 07:34:27 10° SSE visible
08 Dec 9.9 03:00:15 39° ESE 03:00:15 39° ESE 03:06:07 10° E visible
08 Dec 9.2 04:58:33 50° WSW 05:00:48 59° SSW 05:10:23 10° ESE visible
08 Dec 10.0 06:56:51 13° W 07:04:36 34° SW 07:12:58 10° SSE visible
09 Dec 10.3 02:39:50 31° ESE 02:39:50 31° ESE 02:44:26 10° E visible
09 Dec 9.1 04:38:08 57° SW 04:39:08 59° SSW 04:48:45 10° ESE visible
09 Dec 9.9 06:36:26 17° W 06:42:59 35° SW 06:51:29 10° SSE visible
10 Dec 10.6 02:19:25 24° E 02:19:25 24° E 02:22:46 10° E visible
10 Dec 9.2 04:17:44 60° S 04:17:44 60° S 04:27:08 10° ESE visible
10 Dec 9.8 06:16:02 22° W 06:21:22 36° SW 06:29:58 10° SSE visible
11 Dec 10.9 01:59:03 18° E 01:59:03 18° E 02:01:06 10° E visible
11 Dec 9.3 03:57:20 56° SSE 03:57:20 56° SSE 04:05:30 10° ESE visible
11 Dec 9.7 05:55:39 28° WSW 05:59:44 38° SW 06:08:28 10° SSE visible
12 Dec 11.1 01:38:41 13° E 01:38:41 13° E 01:39:25 10° E visible
12 Dec 9.6 03:36:59 47° SE 03:36:59 47° SE 03:43:51 10° ESE visible
12 Dec 9.6 05:35:18 33° WSW 05:38:07 39° SSW 05:46:56 10° SSE visible
12 Dec 10.6 07:36:17 10° W 07:40:51 14° SW 07:45:23 10° SSW visible
13 Dec 10.0 03:16:40 38° SE 03:16:40 38° SE 03:22:13 10° ESE visible
13 Dec 9.5 05:14:58 38° SW 05:16:29 40° SSW 05:25:24 10° SSE visible
13 Dec 10.6 07:14:16 10° W 07:19:17 15° SW 07:24:16 10° SSW visible
14 Dec 10.3 02:56:23 29° ESE 02:56:23 29° ESE 03:00:34 10° ESE visible
14 Dec 9.5 04:54:41 41° SW 04:54:51 41° SSW 05:03:52 10° SE visible
14 Dec 10.5 06:53:00 11° W 06:57:44 16° SW 07:03:06 10° SSW visible
15 Dec 10.7 02:36:07 22° ESE 02:36:07 22° ESE 02:38:55 10° ESE visible
15 Dec 9.6 04:34:26 41° SSW 04:34:26 41° SSW 04:42:19 10° SE visible
15 Dec 10.4 06:32:45 14° WSW 06:36:10 17° SW 06:41:53 10° SSW visible
